Home > Weather > Shenyang > Past weeks

Flag for China Past Weather in Shenyang, Liaoning, China — Yesterday and Last 2 Weeks

Now
77 °F

Thunderstorms. Passing clouds.


Feels Like: 78 °F
Forecast: 72 / 82 °F
Wind: 6 mph from Northwest

Location: Shenyang / Taoxian

Current Time: Jul 31, 2016 at 2:58:34 AM

Latest Report: Jul 31, 2016 at 2:30 AM


Visibility: N/A

Pressure: 29.80 "Hg

Humidity: 89%

Dew Point: 73 °F

Location of ShenyangLocation

Past Weather in Shenyang — Graph

°F

Shenyang Temperature Yesterday

Maximum temperature yesterday: 90 °F (at 2:30 PM)
Minimum temperature yesterday: 73 °F (at 2:30 AM)
Average temperature yesterday: 81 °F

High & Low Weather Summary for the Past Weeks

 TemperatureHumidityPressure
High90 °F (Jul 23, 2:00 PM)100% (Jul 16, 5:30 AM)29.89 "Hg (Jul 16, 5:30 AM)
Low64 °F (Jul 18, 12:30 AM)46% (Jul 18, 2:30 PM)29.53 "Hg (Jul 27, 2:00 PM)
Average77 °F83%29.69 "Hg
* Reported Jul 16 1:00 AM — Jul 31 1:30 AM, Shenyang, Weather by CustomWeather, © 2016

Note: Actual official high and low records may vary slightly from our data, if they occured in-between our weather recording intervals... More about our weather records

Advertising

Shenyang Weather History for the Previous 24 Hours

Scroll right to see more
 ConditionsComfort  
Time TempWeatherWind HumidityBarometerVisibility
1:30 AM
Sun, Jul 31
77 °FPassing clouds.1 mph94%29.80 "Hg4 mi
1:00 AM77 °FPassing clouds.6 mph94%29.80 "Hg4 mi
12:30 AM79 °FPassing clouds.1 mph89%29.80 "Hg4 mi
12:00 AM79 °FPassing clouds.1 mph89%29.80 "Hg4 mi
11:30 PM
Sat, Jul 30
81 °FPassing clouds.1 mph89%29.80 "Hg4 mi
11:00 PM79 °FPassing clouds.3 mph94%29.80 "Hg4 mi
10:30 PM79 °FPassing clouds.3 mph94%29.80 "Hg4 mi
10:00 PM81 °FPassing clouds.3 mph89%29.80 "HgN/A
9:30 PM82 °FPassing clouds.3 mph84%29.80 "HgN/A
9:00 PM82 °FPassing clouds.3 mph84%29.80 "HgN/A
8:30 PM81 °FClear.1 mph84%29.80 "Hg10 mi
8:00 PM82 °FClear.1 mph79%29.77 "Hg10 mi
7:30 PM81 °FClear.1 mph89%29.80 "Hg10 mi
7:00 PM82 °FSunny.1 mph79%29.77 "Hg10 mi
6:30 PM82 °FSunny.1 mph84%29.77 "Hg10 mi
6:00 PM86 °FSunny.1 mph70%29.77 "Hg10 mi
5:30 PM88 °FSunny.1 mph70%29.74 "Hg10 mi
5:00 PM88 °FSunny.3 mph66%29.74 "Hg10 mi
4:30 PM90 °FPassing clouds.1 mph63%29.74 "HgN/A
4:00 PM90 °FPassing clouds.1 mph63%29.77 "HgN/A
3:30 PM90 °FPassing clouds.1 mph63%29.77 "HgN/A
3:00 PM90 °FPartly sunny.3 mph59%29.80 "HgN/A
2:30 PM90 °FPartly sunny.3 mph67%29.80 "HgN/A
2:00 PM88 °FPartly sunny.3 mph62%29.80 "HgN/A
1:30 PM88 °FPartly sunny.3 mph66%29.80 "HgN/A
1:00 PM88 °FPartly sunny.3 mph70%29.80 "HgN/A
12:30 PM88 °FPassing clouds.3 mph66%29.83 "HgN/A
12:00 PM86 °FPartly sunny.3 mph70%29.83 "HgN/A
11:30 AM88 °FPartly sunny.3 mph66%29.83 "HgN/A
11:00 AM86 °FPartly sunny.6 mph75%29.83 "HgN/A
10:30 AM84 °FPassing clouds.3 mph74%29.83 "HgN/A
10:00 AM84 °FClear.3 mph74%29.83 "Hg5 mi
9:30 AM82 °FClear.3 mph79%29.83 "Hg5 mi
9:00 AM82 °FClear.3 mph79%29.83 "Hg4 mi
8:30 AM81 °FClear.3 mph84%29.83 "Hg4 mi
8:00 AM79 °FPartly sunny.1 mph84%29.83 "Hg4 mi
7:30 AM77 °FFog.1 mph89%29.83 "Hg3 mi
7:00 AM77 °FFog.No wind89%29.83 "Hg2 mi
6:30 AM75 °FFog.1 mph94%29.80 "Hg2 mi
6:00 AM75 °FScattered clouds.1 mph89%29.80 "Hg4 mi
5:30 AM75 °FScattered clouds.3 mph89%29.80 "Hg4 mi
5:00 AM75 °FScattered clouds.3 mph89%29.80 "Hg4 mi
4:30 AM75 °FPassing clouds.3 mph89%29.80 "Hg4 mi
4:00 AM73 °FFog.3 mph94%29.77 "Hg3 mi
3:30 AM73 °FFog.3 mph94%29.77 "Hg3 mi
3:00 AM73 °FFog.No wind94%29.77 "Hg3 mi
2:30 AM73 °FFog.No wind94%29.77 "Hg2 mi
2:00 AM75 °FFog.1 mph89%29.77 "Hg3 mi
Weather by CustomWeather, © 2016

See weather overviewHow to use our weather pages